User: anonymous   Login
Location: Unspecified
(0.0000°N, 0.0000°E)
Time: 13:27:35
(UTC+00:00)
Language:

AMOS 1 - Orbit

View from above orbital plane
View from above orbital plane
View from above satellite
View from above satellite

Ground track
Ground track

The orbit data is extracted from the following two-line orbital elements,

1 23865U 96030B   17264.77827035 -.00000146 +00000-0 +00000-0 0  9993
2 23865 007.2238 053.5092 0011255 138.4273 043.5093 00.97118011077594
Epoch (UTC): 21 September 2017 18:40:42
Eccentricity: 0.0011255
inclination: 7.2238°
perigee height: 36645 km
apogee height: 36742 km
right ascension of ascending node: 53.5092°
argument of perigee: 138.4273°
revolutions per day: 0.97118011
mean anomaly at epoch: 43.5093°
orbit number at epoch: 7759

The dashed part of the orbit path shows where the satellite is in the earth's shadow,  

DLR